Tracking 23610 objects as of 19-Sep-2021
HD Live streaming from Space Station
objects crossing your sky now

SL-8 DEB *

Track SL-8 DEB * now!
10-day predictions


NORAD ID: 3931
Int'l Code: 1965-020EV
Perigee: 1,381.8 km
Apogee: 1,687.0 km
Inclination: 56.1 °
Period: 116.6 minutes
Semi major axis: 7905 km
RCS: 0.0346 m2 (small)
Launch date: March 15, 1965
Source: Commonwealth of Independent States (former USSR) (CIS)
Launch site: TYURATAM MISSILE AND SPACE COMPLEX (TTMTR)

Note: This is SATELLITE DEBRIS
aabbcc
Your satellite tracking list
Your tracking list is empty




NASA's NSSDC Master Catalog

Two Line Element Set (TLE):
1  3931U 65020EV  21261.82535856 -.00000138  00000-0 -34914-3 0  9991
2  3931  56.0613  91.3469 0193032 334.0507  40.2370 12.35134797563834
Source of the keplerian elements: AFSPC